sat.trackr.live / text

‹ back to catalog

STARLINK-36629

NORAD 67596 · 2026-018H

PAYLOAD ACTIVE UNKNOWN

§ Identity

Operator
Country
US
Launch date
2026-01-29
Launch site
AFWTR
Launch vehicle
Mass (kg)
RCS (m²)

Purposes: comms

External: N2YO · Heavens-Above · Gunter

§ Orbital elements

Epoch: 2026-09-19T04:05:51.355392Z

Period
93.91 min
Inclination
97.2864°
Eccentricity
0.0001314
Mean motion
15.33451335 rev/d
Perigee alt
464.6 km
Apogee alt
466.4 km
Semi-major
6,843.7 km
B*
5.9341e-4
RAAN
325.5997°
Arg perigee
68.7252°
Mean anomaly
291.4131°
Rev number
3,698

§ Raw data

STARLINK-366291 67596U 26018H   26262.17073328  .00019135  00000+0  59341-3 0  99922 67596  97.2864 325.5997 0001314  68.7252 291.4131 15.33451335 36980

JSON: /api/v1/satellites/67596 · /tle

For live sub-satellite position, see the globe view (requires WebGL).

§ Visibility from observer

Set your observer location to see the next 7 days of passes ≥ 10°. The values pass through the URL so the page stays shareable.

No JS? Fill the form by hand. The geolocation button needs JavaScript.